weather.gov     
National Weather Service

Regional Weather Roundup
NWS Homepage
This page is being discontinued on March 12, 2014.
The same data is available at this site. Please update your bookmarks.
Thank you, and we apologize for the inconvenience.
Please send an email to SR-SRH.Webmaster@noaa.gov with any concerns.


Current Version
Previous Version:    01  02  03  04  05  06  07  08  09  10  11  12  13  14  15  16  17  18  19  20  21  22  23  24  25  26  27  28  29  30  
   31  32  33  34  35  36  37  38  39  40  41  42  43  44  45  46  47  48  49  50  51  52  53  54  55  56  57  58  59  60  
[Printable]
392
ASUS44 KFWD 250015
RWRTX
NORTH TEXAS HOURLY WEATHER ROUNDUP
NATIONAL WEATHER SERVICE FORT WORTH TX
700 PM CDT THU APR 24 2014

NOTE: "FAIR" INDICATES FEW OR NO CLOUDS BELOW 12,000 FEET WITH NO
SIGNIFICANT WEATHER AND/OR OBSTRUCTIONS TO VISIBILITY.

TXZ118-119-250100-
DALLAS/FORT WORTH METROPLEX

CITY           SKY/WX    TMP DP  RH WIND       PRES   REMARKS
DFW AIRPORT    MOSUNNY   80  44  27 N15       29.84R
6HR MIN TEMP:  80; 6HR MAX TEMP:  84;

DALLAS LOVE    SUNNY     80  40  23 NW17      29.83R
6HR MIN TEMP:  80; 6HR MAX TEMP:  84;

FTW MEACHAM    SUNNY     79  44  28 NW13      29.85R
6HR MIN TEMP:  77; 6HR MAX TEMP:  82;

DAL-EXECUTIVE  SUNNY     81  43  26 NW14      29.84R
6HR MIN TEMP:  81; 6HR MAX TEMP:  85;

FTW-ALLIANCE   MOSUNNY   76  44  32 NW12      29.85R
6HR MIN TEMP:  75; 6HR MAX TEMP:  80;

FTW-NAS-JRB    SUNNY     81  40  23 NW17G23   29.90R
6HR MIN TEMP:  80; 6HR MAX TEMP:  85;

FTW-SPINKS     SUNNY     81  45  28 NW8       29.87R
ARLINGTON      SUNNY     80  42  25 NW14      29.84R
6HR MIN TEMP:  80; 6HR MAX TEMP:  84;

GRAND PRAIRIE  SUNNY     81  43  26 NW14      29.84R
LANCASTER      SUNNY     80  42  25 NW13      29.84S
6HR MIN TEMP:  78; 6HR MAX TEMP:  83;

$$

TXZ091>094-102>105-117-120-121-131>134-250100-
NORTH CENTRAL TEXAS

CITY           SKY/WX    TMP DP  RH WIND       PRES   REMARKS
SHRMAN/DENISON SUNNY     75  44  32 NW9       29.85R
6HR MIN TEMP:  75; 6HR MAX TEMP:  78;

GAINESVILLE    SUNNY     74  45  34 NW10      29.89R
6HR MIN TEMP:  73; 6HR MAX TEMP:  78;

BOWIE          SUNNY     75  43  30 NW12      29.88R
6HR MIN TEMP:  74; 6HR MAX TEMP:  79;

BRIDGEPORT     SUNNY     76  40  27 N10G16    29.89R
6HR MIN TEMP:  74; 6HR MAX TEMP:  79;

DECATUR        SUNNY     76  39  26 NW8G22    29.88R
6HR MIN TEMP:  74; 6HR MAX TEMP:  79;

DENTON         SUNNY     77  45  32 NW14      29.85R
6HR MIN TEMP:  76; 6HR MAX TEMP:  80;

MCKINNEY       SUNNY     79  44  28 NW17      29.84R
6HR MIN TEMP:  79; 6HR MAX TEMP:  82; 6HR PCP: TRACE;

GREENVILLE     SUNNY     79  45  29 NW8G17    29.84R
ROCKWALL       SUNNY     80  47  31 W9G17     29.83R
6HR MIN TEMP:  79; 6HR MAX TEMP:  83;

TERRELL        SUNNY     78  49  35 NW12      29.84R
6HR MIN TEMP:  76; 6HR MAX TEMP:  83;

WAXAHACHIE     SUNNY     79  41  25 NW13G18   29.85S
6HR MIN TEMP:  79; 6HR MAX TEMP:  82;

CLEBURNE       SUNNY     81  41  24 NW12      29.88R
GRANBURY       SUNNY     81  39  22 NW13G20   29.88R
6HR MIN TEMP:  80; 6HR MAX TEMP:  85;

$$

TXZ083>090-098>101-113>116-127>130-139>142-154-155-250100-
WESTERN NORTH TEXAS

CITY           SKY/WX    TMP DP  RH WIND       PRES   REMARKS
WICHITA FALLS  SUNNY     76  37  24 N13       29.87S
6HR MIN TEMP:  76; 6HR MAX TEMP:  80;

WF-KICKAPOO    SUNNY     77  34  21 N14G21    29.89S
6HR MIN TEMP:  75; 6HR MAX TEMP:  80;

VERNON         SUNNY     78  31  18 N8        29.90S
6HR MIN TEMP:  62; 6HR MAX TEMP:  90;

ABILENE        SUNNY     80  31  16 N10       29.91S
6HR MIN TEMP:  76; 6HR MAX TEMP:  83;

ABILENE-DYESS  SUNNY     80  34  18 N8        29.91R
6HR MIN TEMP:  75; 6HR MAX TEMP:  82;

BRECKENRIDGE   SUNNY     81  33  17 N10       29.90R
6HR MIN TEMP:  77; 6HR MAX TEMP:  84;

GRAHAM         SUNNY     79  37  21 NW12      29.88R
6HR MIN TEMP:  76; 6HR MAX TEMP:  81;

MINERAL WELLS  SUNNY     79  40  24 NW10G21   29.87R
6HR MIN TEMP:  77; 6HR MAX TEMP:  82;

STEPHENVILLE   SUNNY     79  35  20 N14G20    29.91R
6HR MIN TEMP:  77; 6HR MAX TEMP:  83;

COMANCHE       SUNNY     80  33  18 N10       29.89S
6HR MIN TEMP:  77; 6HR MAX TEMP:  82;

BROWNWOOD      SUNNY     81  32  17 N13       29.90R
COLEMAN        SUNNY     81  31  16 N10G18    29.91R
6HR MIN TEMP:  78; 6HR MAX TEMP:  83;

BRADY          SUNNY     82  34  17 NW10      29.91R
$$

TXZ143>147-156>162-174-175-250100-
CENTRAL TEXAS

CITY           SKY/WX    TMP DP  RH WIND       PRES   REMARKS
WACO           SUNNY     83  43  24 N9        29.84R
6HR MIN TEMP:  82; 6HR MAX TEMP:  88;

WACO-TSTC      SUNNY     82  48  30 NW9       29.84
WACO-MCGREGOR  SUNNY     82  43  24 N7        29.86R
6HR MIN TEMP:  82; 6HR MAX TEMP:  90;

HILLSBORO      SUNNY     80  45  29 NW12      29.85R
6HR MIN TEMP:  80; 6HR MAX TEMP:  85;

CORSICANA      SUNNY     82  49  31 N9        29.84R
6HR MIN TEMP:  78; 6HR MAX TEMP:  87;

MEXIA          SUNNY     80  50  35 N6        29.83R
6HR MIN TEMP:  75; 6HR MAX TEMP:  84;

HEARNE         SUNNY     85  65  51 CALM      29.82R
6HR MIN TEMP:  77; 6HR MAX TEMP:  85;

CAMERON        MOSUNNY   85  66  53 CALM      29.82R
6HR MIN TEMP:  79; 6HR MAX TEMP:  87;

TEMPLE         SUNNY     84  39  20 N10       29.87R
6HR MIN TEMP:  81; 6HR MAX TEMP:  91;

KILLEEN        SUNNY     84  39  20 N9        29.86R
KILLEEN-SKYLRK SUNNY     84  28  13 N7        29.84R
6HR MIN TEMP:  84; 6HR MAX TEMP:  90;

FORT HOOD      SUNNY     86  38  18 NW8       29.86R
6HR MIN TEMP:  85; 6HR MAX TEMP:  93;

GATESVILLE     SUNNY     84  39  20 N7        29.88R
HAMILTON       SUNNY     82  34  17 N13       29.89S
6HR MIN TEMP:  82; 6HR MAX TEMP:  85;

LAMPASAS       SUNNY     82  39  21 N7        29.87R
6HR MIN TEMP:  82; 6HR MAX TEMP:  91;

$$

TXZ095>097-106>112-122>126-135>138-148>153-164>167-250100-
EAST TEXAS

CITY           SKY/WX    TMP DP  RH WIND       PRES   REMARKS
PARIS          SUNNY     75  48  38 NW15G22   29.82R
6HR MIN TEMP:  75; 6HR MAX TEMP:  81;

SULPHUR SPRNGS SUNNY     76  51  41 NW14      29.84R
6HR MIN TEMP:  74; 6HR MAX TEMP:  82;

CLARKSVILLE    SUNNY     78  48  34 W3        29.80R
6HR MIN TEMP:  74; 6HR MAX TEMP:  83;

MOUNT PLEASANT SUNNY     79  53  41 NW13      29.82R
6HR MIN TEMP:  75; 6HR MAX TEMP:  82;

GILMER         SUNNY     81  55  41 W5        29.82R
MINEOLA        SUNNY     81  52  36 W8        29.82R
TYLER          SUNNY     81  53  37 NW13G21   29.81R
6HR MIN TEMP:  75; 6HR MAX TEMP:  83;

LONGVIEW       PTSUNNY   80  63  55 W9        29.78S
6HR MIN TEMP:  76; 6HR MAX TEMP:  82;

MARSHALL       MOSUNNY   78  64  62 SW8       29.80S
6HR MIN TEMP:  73; 6HR MAX TEMP:  79;

ATHENS         SUNNY     79  52  38 NW5       29.81R
PALESTINE      PTSUNNY   81  65  57 SW5       29.84R
JACKSONVILLE   SUNNY     77  63  61 S3        29.84S
HENDERSON      PTSUNNY   78  63  58 CALM      29.81S
6HR MIN TEMP:  75; 6HR MAX TEMP:  82;

NACOGDOCHES    SUNNY     77  64  65 SW8       29.82S
6HR MIN TEMP:  75; 6HR MAX TEMP:  79;

LUFKIN         SUNNY     80  66  62 S9        29.82S
6HR MIN TEMP:  79; 6HR MAX TEMP:  84;

$$

SUPPLEMENTAL OBSERVATIONS (CENTRAL)

CITY           SKY/WX    TMP DP  RH WIND       PRES   REMARKS
LAKE TEXOMA      N/A     73  41  31 NW9         N/A
CADDO GRASSLND   N/A     79  45  29 NW7G20      N/A
PAT MAYSE LAKE   N/A     75  45  33 W15         N/A
GREENVILLE       N/A     77  48  36 NW10        N/A
CEDAR HILL       N/A     81  45  28 NW6         N/A
ATHENS           N/A     81  52  36 NW3         N/A
LAKE LIMESTONE   N/A     82  52  34 N2          N/A
MCGREGOR         N/A     84  41  21 N6G14       N/A
TEMPLE           N/A     84  41  21 VRB2        N/A




U.S. Dept. of Commerce
NOAA National Weather Service
1325 East West Highway
Silver Spring, MD 20910
E-mail: w-nws.webmaster@noaa.gov
Page last modified: May 16, 2007
NATIONAL WEATHER SERVICE: for Safety, for Work, for Fun - FOR LIFE